This is the latest recevied weather packets stored in our database for station/object KE0YJJ-14. If no packets are shown the sender has not sent any weather packets the latest 10 day(s).
| Time | Temp. | Humidity | Pressure | Rain* | Wind** | Luminosity | Snow |
|---|---|---|---|---|---|---|---|
| 1777921396 | 17.78° C | 31% | - | 0 mm | - | - | - |
| 1777921092 | 17.78° C | 28% | - | 0 mm | - | - | - |
| 1777920790 | 18.33° C | 30% | - | 0 mm | - | - | - |
| 1777920486 | 17.78° C | 31% | - | 0 mm | - | - | - |
| 1777920181 | 17.78° C | 31% | - | 0 mm | - | - | - |
| 1777919877 | 18.33° C | 33% | - | 0 mm | - | - | - |
| 1777919574 | 17.22° C | 35% | - | 0 mm | - | - | - |
| 1777919273 | 17.22° C | 34% | - | 0 mm | - | - | - |
| 1777918969 | 17.78° C | 34% | - | 0 mm | - | - | - |
| 1777918667 | 17.78° C | 32% | - | 0 mm | - | - | - |
| 1777918364 | 17.78° C | 34% | - | 0 mm | - | - | - |
| 1777918063 | 17.78° C | 36% | - | 0 mm | - | - | - |
| 1777917761 | 17.78° C | 36% | - | 0 mm | - | - | - |
| 1777917459 | 17.78° C | 35% | - | 0 mm | - | - | - |
| 1777917155 | 17.22° C | 35% | - | 0 mm | - | - | - |
| 1777916853 | 17.22° C | 35% | - | 0 mm | - | - | - |
| 1777916551 | 17.78° C | 33% | - | 0 mm | - | - | - |
| 1777916247 | 17.22° C | 32% | - | 0 mm | - | - | - |
| 1777915944 | 17.22° C | 31% | - | 0 mm | - | - | - |
| 1777915641 | 17.78° C | 35% | - | 0 mm | - | - | - |
| 1777915337 | 18.33° C | 35% | - | 0 mm | - | - | - |
| 1777915034 | 18.33° C | 36% | - | 0 mm | - | - | - |
| 1777914731 | 17.78° C | 35% | - | 0 mm | - | - | - |
| 1777914428 | 17.22° C | 35% | - | 0 mm | - | - | - |
| 1777914125 | 17.78° C | 33% | - | 0 mm | - | - | - |
* Rain latest hour (hover to see other rain measurements)
** Current wind speed in m/s (hover to see current wind gust speed)